Terminal Aerodrome Forecast
Issued by NWS Dodge City, KS

Home | Current Version | Previous Version | Text Only | Print | Product List | Glossary On
Versions: 1 2 3 4 5 6 7 8 9 10 11 12 13 14 15 16 17 18 19 20 21 22 23 24 25 26 27 28 29 30 31 32 33 34 35 36 37 38 39 40 41 42
000
FTUS43 KDDC 150529
TAFDDC
TAF
KDDC 150529Z 1506/1606 20010KT P6SM SCT150
     FM151400 01012KT P6SM OVC007
     FM151800 01015G25KT P6SM BKN015=

USA.gov is the U.S. government's official web portal to all federal, state and local government web resources and services.